Tracking 19489 objects as of 23-Jan-2019
HD Live streaming from Space Station
objects crossing your sky now

FENGYUN 1C DEB

Track FENGYUN 1C DEB now!
10-day predictions


NORAD ID: 30342
Int'l Code: 1999-025ABD
Perigee: 854.3 km
Apogee: 1,112.4 km
Inclination: 100.2 °
Period: 104.6 minutes
Semi major axis: 7354 km
RCS: 0.0538 m2 (small)
Launch date: May 10, 1999
Source: People's Republic of China (PRC)
Launch site: Taiyaun Space Center, China (TSC)

Note: This is SATELLITE DEBRIS
aabbcc
Your satellite tracking list
Your tracking list is empty




NASA's NSSDC Master Catalog

Two Line Element Set (TLE):
1 30342U 99025ABD 19022.92300258  .00000280  00000-0  30001-3 0  9997
2 30342 100.1772 355.9651 0175478  87.3480 336.4026 13.76524303602622
Source of the keplerian elements: AFSPC